Tracking 20232 objects as of 22-Jan-2020
HD Live streaming from Space Station
objects crossing your sky now

BRICSAT 2 (NO-103)

Track BRICSAT 2 (NO-103) now!
10-day predictions
BRICSAT 2 (NO-103) is classified as:


NORAD ID: 44355
Int'l Code: 2019-036S
Perigee: 310.9 km
Apogee: 814.1 km
Inclination: 28.5 °
Period: 95.8 minutes
Semi major axis: 6933 km
RCS: Unknown
Launch date: June 25, 2019
Source: United States (US)
Launch site: AIR FORCE EASTERN TEST RANGE (AFETR)

Uplink (MHz): 28.120/145.825
Downlink (MHz): 145.825/435.350
Beacon (MHz): 437.605
Mode: 1k2/9k6 FSK
Call sign: USNAP1-1
Status: Active

aabbcc
Your satellite tracking list
Your tracking list is empty




NASA's NSSDC Master Catalog

Two Line Element Set (TLE):
1 44355U 19036S   20021.84191817  .00012034  00000-0  17546-3 0  9990
2 44355  28.5311 265.3981 0362847 182.0705 177.8380 15.03747706 31626
Source of the keplerian elements: AFSPC